BGA12H EHAM-ELLX

Flight info

Callsign BGA12H
Flight time 0h 41m
Altitude 27000
Route LOPIK N852 LNO
Aircraft A337/H-SDE3GHIJ2J3J5M1RVWXY/LB2D1

Departure

Time 2026-04-28 18:02
Airport Amsterdam Airport Schiphol (EHAM)

Arrival

Time 2026-04-28 18:43
Airport Luxembourg-Findel International Airport (ELLX)
Time Latitude Longitude Altitude Speed Heading
2026-04-28 17:28 52.29576 4.76415 1 ft 0 kts 148°
2026-04-28 17:43 52.29577 4.76414 1 ft 2 kts 148°
2026-04-28 17:43 52.29588 4.76403 3 ft 2 kts 148°
2026-04-28 17:43 52.29593 4.76398 3 ft 0 kts 148°
2026-04-28 17:43 52.29592 4.76398 1 ft 0 kts 148°
2026-04-28 17:44 52.29605 4.76385 2 ft 2 kts 148°
2026-04-28 17:44 52.29619 4.76371 1 ft 2 kts 148°
2026-04-28 17:44 52.29633 4.76357 3 ft 2 kts 148°
2026-04-28 17:45 52.29647 4.76346 4 ft 2 kts 175°
2026-04-28 17:45 52.29666 4.76351 3 ft 3 kts 208°
2026-04-28 17:45 52.29682 4.76367 2 ft 3 kts 221°
2026-04-28 17:45 52.29695 4.76391 2 ft 3 kts 237°
2026-04-28 17:46 52.29696 4.76396 3 ft 0 kts 238°
2026-04-28 17:48 52.29694 4.76390 2 ft 4 kts 238°
2026-04-28 17:48 52.29665 4.76309 2 ft 11 kts 240°
2026-04-28 17:48 52.29613 4.76176 0 ft 17 kts 238°
2026-04-28 17:49 52.29558 4.76033 0 ft 19 kts 238°
2026-04-28 17:49 52.29519 4.75906 0 ft 20 kts 249°
2026-04-28 17:49 52.29464 4.75699 1 ft 20 kts 238°
2026-04-28 17:49 52.29437 4.75603 0 ft 0 kts 265°
2026-04-28 17:50 52.29438 4.75583 0 ft 7 kts 273°
2026-04-28 17:51 52.29480 4.75509 -1 ft 11 kts 326°
2026-04-28 17:51 52.29547 4.75437 -1 ft 12 kts 329°
2026-04-28 17:51 52.29613 4.75370 4 ft 10 kts 327°
2026-04-28 17:51 52.29679 4.75303 2 ft 13 kts 331°
2026-04-28 17:52 52.29771 4.75268 2 ft 14 kts 351°
2026-04-28 17:52 52.29850 4.75180 1 ft 14 kts 308°
2026-04-28 17:52 52.30001 4.74895 1 ft 21 kts 311°
2026-04-28 17:53 52.30109 4.74695 1 ft 25 kts 311°
2026-04-28 17:53 52.30226 4.74475 1 ft 26 kts 310°
2026-04-28 17:53 52.30352 4.74246 1 ft 27 kts 319°
2026-04-28 17:53 52.30531 4.74198 1 ft 26 kts
2026-04-28 17:54 52.30711 4.74214 1 ft 26 kts
2026-04-28 17:54 52.30887 4.74229 1 ft 25 kts
2026-04-28 17:54 52.31059 4.74250 1 ft 25 kts
2026-04-28 17:54 52.31227 4.74266 1 ft 24 kts
2026-04-28 17:55 52.31396 4.74280 2 ft 24 kts
2026-04-28 17:55 52.31561 4.74297 2 ft 23 kts
2026-04-28 17:55 52.31715 4.74308 3 ft 23 kts
2026-04-28 17:55 52.31881 4.74321 -2 ft 25 kts
2026-04-28 17:56 52.32016 4.74284 -2 ft 18 kts 309°
2026-04-28 17:56 52.32035 4.74085 -2 ft 19 kts 272°
2026-04-28 17:56 52.32043 4.73878 2 ft 17 kts 274°
2026-04-28 17:56 52.32051 4.73686 5 ft 17 kts 274°
2026-04-28 17:57 52.32060 4.73488 7 ft 18 kts 275°
2026-04-28 17:57 52.32120 4.73312 6 ft 19 kts 318°
2026-04-28 17:57 52.32233 4.73153 2 ft 24 kts 319°
2026-04-28 17:57 52.32374 4.72952 1 ft 29 kts 318°
2026-04-28 17:58 52.32536 4.72725 1 ft 32 kts 319°
2026-04-28 17:58 52.32702 4.72474 5 ft 32 kts 311°
2026-04-28 17:58 52.32853 4.72201 2 ft 33 kts 312°
2026-04-28 17:58 52.33005 4.71914 1 ft 33 kts 310°
2026-04-28 17:59 52.33144 4.71627 5 ft 29 kts 287°
2026-04-28 17:59 52.33083 4.71419 3 ft 21 kts 220°
2026-04-28 17:59 52.32968 4.71250 1 ft 21 kts 223°
2026-04-28 17:59 52.32902 4.71155 1 ft 12 kts 220°
2026-04-28 18:00 52.32865 4.71051 0 ft 7 kts 262°
2026-04-28 18:00 52.32867 4.70962 0 ft 8 kts 275°
2026-04-28 18:00 52.32893 4.70891 1 ft 8 kts 335°
2026-04-28 18:00 52.32923 4.70887 0 ft 0 kts
2026-04-28 18:01 52.32924 4.70887 0 ft 1 kts
2026-04-28 18:01 52.32968 4.70891 -1 ft 15 kts
2026-04-28 18:01 52.33225 4.70923 -4 ft 66 kts
2026-04-28 18:01 52.33892 4.70978 5 ft 123 kts
2026-04-28 18:02 52.34899 4.71048 131 ft 160 kts
2026-04-28 18:02 52.36027 4.71105 769 ft 162 kts
2026-04-28 18:02 52.37132 4.71148 1644 ft 162 kts
2026-04-28 18:02 52.38354 4.71213 2008 ft 191 kts
2026-04-28 18:03 52.39759 4.71290 2493 ft 210 kts
2026-04-28 18:03 52.41235 4.71361 3158 ft 212 kts 12°
2026-04-28 18:03 52.42613 4.71931 3834 ft 199 kts 36°
2026-04-28 18:03 52.43567 4.73439 4472 ft 189 kts 70°
2026-04-28 18:04 52.43688 4.75508 5087 ft 187 kts 110°
2026-04-28 18:04 52.42905 4.77226 5646 ft 198 kts 146°
2026-04-28 18:04 52.42034 4.77742 5976 ft 211 kts 167°
2026-04-28 18:04 52.40530 4.78219 6229 ft 228 kts 160°
2026-04-28 18:05 52.38937 4.78926 6440 ft 245 kts 159°
2026-04-28 18:05 52.37246 4.79700 6649 ft 259 kts 160°
2026-04-28 18:05 52.35473 4.80498 6966 ft 268 kts 160°
2026-04-28 18:05 52.33653 4.81308 7477 ft 273 kts 162°
2026-04-28 18:06 52.31818 4.82112 8129 ft 274 kts 162°
2026-04-28 18:06 52.29966 4.82926 8753 ft 277 kts 161°
2026-04-28 18:06 52.28106 4.83740 9417 ft 277 kts 161°
2026-04-28 18:06 52.26257 4.84649 10043 ft 277 kts 153°
2026-04-28 18:07 52.24588 4.86210 10494 ft 280 kts 140°
2026-04-28 18:07 52.23005 4.88195 10713 ft 294 kts 138°
2026-04-28 18:07 52.21376 4.90345 10926 ft 308 kts 139°
2026-04-28 18:07 52.19690 4.92565 11319 ft 314 kts 138°
2026-04-28 18:08 52.17988 4.94787 11921 ft 313 kts 137°
2026-04-28 18:08 52.16278 4.97012 12408 ft 316 kts 138°
2026-04-28 18:08 52.14548 4.99260 12827 ft 322 kts 139°
2026-04-28 18:08 52.12774 5.01556 13207 ft 327 kts 138°
2026-04-28 18:09 52.10978 5.03848 13680 ft 331 kts 142°
2026-04-28 18:09 52.08975 5.05684 14067 ft 338 kts 157°
2026-04-28 18:09 52.06699 5.06883 14513 ft 342 kts 161°
2026-04-28 18:09 52.04403 5.07914 14957 ft 343 kts 161°
2026-04-28 18:10 52.02089 5.08933 15378 ft 345 kts 161°
2026-04-28 18:10 51.99795 5.09943 15798 ft 347 kts 161°
2026-04-28 18:10 51.97457 5.10980 16216 ft 349 kts 162°
2026-04-28 18:10 51.95093 5.12031 16500 ft 356 kts 162°
2026-04-28 18:11 51.92675 5.13107 16693 ft 364 kts 161°
2026-04-28 18:11 51.90229 5.14195 17073 ft 366 kts 161°
2026-04-28 18:11 51.87763 5.15293 17374 ft 370 kts 163°
2026-04-28 18:11 51.85271 5.16399 17695 ft 373 kts 162°
2026-04-28 18:12 51.82760 5.17508 18060 ft 375 kts 161°
2026-04-28 18:12 51.80240 5.18619 18441 ft 376 kts 161°
2026-04-28 18:12 51.77712 5.19734 18784 ft 377 kts 162°
2026-04-28 18:12 51.75180 5.20855 19085 ft 378 kts 162°
2026-04-28 18:13 51.72646 5.21972 19477 ft 377 kts 162°
2026-04-28 18:13 51.70111 5.23089 19777 ft 379 kts 161°
2026-04-28 18:13 51.67562 5.24212 20052 ft 381 kts 162°
2026-04-28 18:13 51.64996 5.25342 20325 ft 383 kts 162°
2026-04-28 18:14 51.62424 5.26471 20605 ft 385 kts 163°
2026-04-28 18:14 51.59835 5.27604 20917 ft 385 kts 163°
2026-04-28 18:14 51.57245 5.28737 21196 ft 387 kts 163°
2026-04-28 18:14 51.54633 5.29882 21438 ft 389 kts 163°
2026-04-28 18:15 51.52017 5.31025 21677 ft 393 kts 163°
2026-04-28 18:15 51.49368 5.32181 21949 ft 394 kts 164°
2026-04-28 18:15 51.46754 5.33322 22221 ft 395 kts 163°
2026-04-28 18:15 51.44061 5.34495 22527 ft 396 kts 163°
2026-04-28 18:16 51.41411 5.35647 22873 ft 395 kts 164°
2026-04-28 18:16 51.38783 5.36790 23059 ft 399 kts 164°
2026-04-28 18:16 51.36063 5.37975 23239 ft 402 kts 164°
2026-04-28 18:16 51.33353 5.39154 23460 ft 404 kts 163°
2026-04-28 18:17 51.30677 5.40319 23694 ft 404 kts 164°
2026-04-28 18:17 51.27918 5.41518 23879 ft 407 kts 164°
2026-04-28 18:17 51.25209 5.42620 24100 ft 408 kts 166°
2026-04-28 18:17 51.22433 5.43615 24284 ft 409 kts 167°
2026-04-28 18:18 51.19645 5.44540 24507 ft 410 kts 168°
2026-04-28 18:18 51.16870 5.45514 24770 ft 409 kts 166°
2026-04-28 18:18 51.14113 5.46617 24997 ft 409 kts 165°
2026-04-28 18:18 51.12253 5.47410 25135 ft 409 kts 164°
2026-04-28 18:19 51.08599 5.49023 25306 ft 413 kts 164°
2026-04-28 18:19 51.05840 5.50256 25564 ft 412 kts 164°
2026-04-28 18:19 51.03079 5.51484 25785 ft 412 kts 164°
2026-04-28 18:19 51.00304 5.52709 25941 ft 414 kts 164°
2026-04-28 18:20 50.97528 5.53924 26206 ft 413 kts 164°
2026-04-28 18:20 50.94763 5.55128 26479 ft 412 kts 164°
2026-04-28 18:20 50.92000 5.56326 26714 ft 412 kts 165°
2026-04-28 18:20 50.89245 5.57518 27021 ft 409 kts 165°
2026-04-28 18:21 50.86502 5.58702 27153 ft 407 kts 165°
2026-04-28 18:21 50.83799 5.59867 27160 ft 399 kts 165°
2026-04-28 18:21 50.81135 5.61015 27158 ft 397 kts 165°
2026-04-28 18:21 50.78471 5.62162 27156 ft 396 kts 165°
2026-04-28 18:22 50.75818 5.63302 26870 ft 394 kts 165°
2026-04-28 18:22 50.73161 5.64441 26009 ft 398 kts 166°
2026-04-28 18:22 50.70477 5.65593 25286 ft 399 kts 165°
2026-04-28 18:22 50.67809 5.66758 24695 ft 396 kts 165°
2026-04-28 18:23 50.65179 5.67965 24149 ft 391 kts 165°
2026-04-28 18:23 50.62581 5.69169 23509 ft 389 kts 165°
2026-04-28 18:23 50.59989 5.70370 22836 ft 386 kts 164°
2026-04-28 18:23 50.57458 5.71676 22234 ft 381 kts 161°
2026-04-28 18:24 50.54977 5.73112 21602 ft 378 kts 160°
2026-04-28 18:24 50.53352 5.74072 21172 ft 376 kts 160°
2026-04-28 18:24 50.50089 5.75998 20319 ft 372 kts 160°
2026-04-28 18:24 50.47682 5.77414 19776 ft 367 kts 160°
2026-04-28 18:25 50.45298 5.78812 19170 ft 365 kts 160°
2026-04-28 18:25 50.42932 5.80197 18637 ft 360 kts 159°
2026-04-28 18:25 50.40626 5.81544 18049 ft 356 kts 159°
2026-04-28 18:26 50.35999 5.84223 16723 ft 352 kts 159°
2026-04-28 18:26 50.33744 5.85518 16468 ft 338 kts 159°
2026-04-28 18:26 50.31593 5.86756 16164 ft 321 kts 159°
2026-04-28 18:26 50.29534 5.87940 15627 ft 311 kts 159°
2026-04-28 18:27 50.27513 5.89102 15088 ft 309 kts 159°
2026-04-28 18:27 50.25504 5.90257 14623 ft 306 kts 159°
2026-04-28 18:27 50.23513 5.91400 14185 ft 303 kts 159°
2026-04-28 18:27 50.21546 5.92527 13774 ft 299 kts 158°
2026-04-28 18:28 50.19613 5.93636 13340 ft 293 kts 158°
2026-04-28 18:28 50.17703 5.94731 12807 ft 292 kts 158°
2026-04-28 18:28 50.15807 5.95817 12379 ft 288 kts 158°
2026-04-28 18:28 50.13936 5.96889 11880 ft 286 kts 159°
2026-04-28 18:29 50.12054 5.97968 11278 ft 289 kts 159°
2026-04-28 18:29 50.10186 5.99036 10916 ft 283 kts 159°
2026-04-28 18:29 50.08343 6.00088 10419 ft 282 kts 159°
2026-04-28 18:29 50.06427 6.00607 10086 ft 278 kts 181°
2026-04-28 18:30 50.04554 6.00151 9941 ft 267 kts 188°
2026-04-28 18:30 50.03944 5.99944 9908 ft 262 kts 189°
2026-04-28 18:30 50.01076 5.98932 9491 ft 250 kts 191°
2026-04-28 18:30 49.99392 5.98334 9156 ft 247 kts 189°
2026-04-28 18:31 49.97725 5.97744 8764 ft 246 kts 191°
2026-04-28 18:31 49.96054 5.97153 8371 ft 246 kts 189°
2026-04-28 18:31 49.94398 5.96569 8028 ft 243 kts 188°
2026-04-28 18:31 49.92783 5.95999 7697 ft 241 kts 190°
2026-04-28 18:32 49.91125 5.95411 7283 ft 242 kts 188°
2026-04-28 18:32 49.89510 5.94840 6914 ft 241 kts 189°
2026-04-28 18:32 49.87882 5.94262 6584 ft 239 kts 188°
2026-04-28 18:32 49.86262 5.93691 6212 ft 239 kts 188°
2026-04-28 18:33 49.84632 5.93117 5783 ft 241 kts 187°
2026-04-28 18:33 49.82987 5.92539 5377 ft 243 kts 188°
2026-04-28 18:33 49.81334 5.91958 5004 ft 243 kts 189°
2026-04-28 18:33 49.79680 5.91378 4621 ft 244 kts 188°
2026-04-28 18:34 49.78029 5.90798 4305 ft 243 kts 188°
2026-04-28 18:34 49.76381 5.90219 4034 ft 242 kts 188°
2026-04-28 18:34 49.74742 5.89643 3990 ft 242 kts 188°
2026-04-28 18:34 49.73100 5.89067 4002 ft 242 kts 188°
2026-04-28 18:35 49.71458 5.88492 3998 ft 241 kts 188°
2026-04-28 18:35 49.69882 5.87935 3965 ft 224 kts 188°
2026-04-28 18:35 49.68412 5.87413 3855 ft 209 kts 188°
2026-04-28 18:35 49.67034 5.86923 3649 ft 199 kts 187°
2026-04-28 18:36 49.65695 5.86456 3292 ft 198 kts 187°
2026-04-28 18:36 49.64357 5.85988 3030 ft 196 kts 188°
2026-04-28 18:36 49.63039 5.85695 2966 ft 191 kts 169°
2026-04-28 18:36 49.61834 5.86255 2988 ft 183 kts 150°
2026-04-28 18:37 49.60691 5.87112 2986 ft 183 kts 148°
2026-04-28 18:37 49.59557 5.88007 2976 ft 183 kts 147°
2026-04-28 18:37 49.58426 5.88904 2981 ft 182 kts 147°
2026-04-28 18:37 49.57304 5.89793 2991 ft 181 kts 147°
2026-04-28 18:38 49.56197 5.90712 2976 ft 179 kts 139°
2026-04-28 18:38 49.55522 5.92181 2982 ft 164 kts 103°
2026-04-28 18:38 49.55365 5.93886 3000 ft 159 kts 93°
2026-04-28 18:38 49.55302 5.95570 3000 ft 157 kts 92°
2026-04-28 18:39 49.55248 5.97259 2986 ft 160 kts 92°
2026-04-28 18:39 49.55193 5.98979 2985 ft 161 kts 91°
2026-04-28 18:39 49.55267 6.00683 2980 ft 160 kts 76°
2026-04-28 18:39 49.55665 6.02273 2982 ft 159 kts 66°
2026-04-28 18:40 49.56187 6.03781 2990 ft 161 kts 63°
2026-04-28 18:40 49.56739 6.05284 2990 ft 163 kts 62°
2026-04-28 18:40 49.57303 6.06791 2974 ft 157 kts 62°
2026-04-28 18:40 49.57814 6.08173 2805 ft 140 kts 62°
2026-04-28 18:41 49.58277 6.09426 2636 ft 131 kts 62°
2026-04-28 18:41 49.58737 6.10663 2427 ft 135 kts 62°
2026-04-28 18:41 49.59204 6.11914 2243 ft 134 kts 62°
2026-04-28 18:41 49.59668 6.13164 2071 ft 134 kts 60°
2026-04-28 18:42 49.60131 6.14408 1874 ft 134 kts 62°
2026-04-28 18:42 49.60595 6.15655 1709 ft 135 kts 61°
2026-04-28 18:42 49.61060 6.16890 1522 ft 132 kts 62°
2026-04-28 18:42 49.61515 6.18132 1334 ft 134 kts 59°
2026-04-28 18:43 49.61967 6.19336 1220 ft 126 kts 60°
2026-04-28 18:43 49.62350 6.20367 1216 ft 95 kts 60°
2026-04-28 18:43 49.62592 6.21001 1220 ft 38 kts 49°
2026-04-28 18:43 49.62769 6.21206 1211 ft 23 kts 31°
2026-04-28 18:44 49.62878 6.21303 1203 ft 18 kts 29°
2026-04-28 18:44 49.63054 6.21571 1201 ft 18 kts 64°
2026-04-28 18:44 49.63107 6.21743 1201 ft 18 kts 64°
2026-04-28 18:45 49.63160 6.21916 1202 ft 18 kts 64°
2026-04-28 18:45 49.63213 6.22089 1202 ft 18 kts 65°
2026-04-28 18:45 49.63266 6.22259 1203 ft 18 kts 64°
2026-04-28 18:45 49.63319 6.22430 1203 ft 18 kts 64°
2026-04-28 18:46 49.63377 6.22595 1203 ft 17 kts 60°
2026-04-28 18:46 49.63436 6.22753 1203 ft 17 kts 60°
2026-04-28 18:46 49.63517 6.22842 1202 ft 13 kts 351°
2026-04-28 18:46 49.63585 6.22799 1200 ft 7 kts
2026-04-28 18:47 49.63604 6.22845 1200 ft 6 kts 68°
2026-04-28 18:47 49.63625 6.22903 1200 ft 7 kts 59°
2026-04-28 18:47 49.63627 6.22910 1200 ft 0 kts 59°